TITAN 3C TRANSTAGE DEB, 38695

Orbit data source: Space-Track

TITAN 3C TRANSTAGE DEB, 38695 is space debris in GEO originally from a launch on Thu, 26 Sep 1968 UTC launched from the Air Force Eastern Test Range (AFETR). Debris objects in space refer to the collection of defunct objects orbiting the Earth. Examples of debris include non-operational satellites, rocket bodies, and fragments generated from explosions, collisions, or faulty payload assembly.

Not visible in the next 10 days
Identifier
38695, 1968-081V
Orbit
GEO
Country
Flag of USUS
Related business
Manufacturer
Unknown
Mission
Spacecraft
Bus & Motor
Unknown
Mass
Unknown
Launch date (UTC)
1968-09-26 (57 years ago)
Launch vehicle
Unknown
Launch site
Air Force Eastern Test Range (AFETR)
Object type
Payload
Rocket body
Debris
Shape & HBR
Unknown shape, 1.1 m
Radar Cross Section
Small (<0.1 m²)

Expand to show TLE details & history
Last TLE update: 1 day ago

TLE from 1 day ago
0 TITAN 3C TRANSTAGE DEB
1 38695U 68081V   25347.42570310 -.00000199  00000-0  00000-0 0  9997
2 38695   1.9044  20.8417 0437905 270.5678 112.9821  0.99394567 61504
Epoch: 2025-12-13T10:13Z
TLE epoch observation values (Epoch: 2025-12-13T10:13:00.747Z)
Latitude
0.91445°
Longitude
173.28234°
Altitude
36,833.509 km
Speed
3.008 km/s
True Right ascension
03h 15m 33s
True Declination
0° 54' 49"
Sunlit
Object was in daylight at epoch
Visualization orbit readout
Latitude
Unknown
Longitude
Unknown
Altitude
Unknown
Speed
Unknown
Apparent Right ascension
Unknown
Apparent Declination
Unknown
Sunlit
N/A
Visualization observer readout
Local Sidereal Time
13:22:58
Azimuth
Unknown
Elevation
Unknown
Doppler factor
Unknown
Orbital elements
Apogee altitude
37,892.693 km
Perigee altitude
34,178.074 km
Semi-major axis
42,413.521 km
Eccentricity
0.04379
Inclination
1.9044°
RAAN
20.8417°
Arg. of periapsis
270.5678°
True anomaly
117.50041°
Mean anomaly
112.9821°
Eccentric anomaly
115.25136°
Mean motion
0.24848 °/min
Orbital period
1,448.82 mins
BSTAR
0
Loading maneuver chart data...
Computing Atmospheric mass density...

Documentation

Showing up to 5 results
|